Time,TemperatureF,DewpointF,PressureIn,WindDirection,WindDirectionDegrees,WindSpeedMPH,WindSpeedGustMPH,Humidity,HourlyPrecipIn,Conditions,Clouds,dailyrainin,SoftwareType,DateUTC
2013-04-27 00:03:00,50.0,36.0,30.33,SE,131,0.0,1.0,59,0.00,,,0.00,,2013-04-27 04:03:00,
2013-04-27 00:13:00,50.0,36.0,30.33,SE,131,0.0,1.0,59,0.00,,,0.00,,2013-04-27 04:13:00,
2013-04-27 00:23:00,49.0,37.0,30.33,SE,131,0.0,1.0,64,0.00,,,0.00,,2013-04-27 04:23:00,
2013-04-27 00:33:00,48.0,41.0,30.33,SE,131,0.0,1.0,76,0.00,,,0.00,,2013-04-27 04:33:00,
2013-04-27 00:43:00,48.0,41.0,30.33,SE,131,0.0,1.0,76,0.00,,,0.00,,2013-04-27 04:43:00,
2013-04-27 00:52:00,47.0,40.0,30.33,East,96,1.0,2.0,77,0.00,,,0.00,,2013-04-27 04:52:00,
2013-04-27 01:02:00,46.0,41.0,30.33,East,94,0.0,0.0,81,0.00,,,0.00,,2013-04-27 05:02:00,
2013-04-27 01:12:00,46.0,41.0,30.33,East,94,0.0,0.0,81,0.00,,,0.00,,2013-04-27 05:12:00,
2013-04-27 01:22:00,45.0,40.0,30.33,East,94,0.0,0.0,82,0.00,,,0.00,,2013-04-27 05:22:00,
2013-04-27 01:32:00,43.0,39.0,30.34,East,94,0.0,0.0,85,0.00,,,0.00,,2013-04-27 05:32:00,
2013-04-27 01:42:00,43.0,39.0,30.34,East,94,0.0,0.0,85,0.00,,,0.00,,2013-04-27 05:42:00,
2013-04-27 01:52:00,43.0,39.0,30.34,East,95,0.0,0.0,87,0.00,,,0.00,,2013-04-27 05:52:00,
2013-04-27 02:02:00,43.0,39.0,30.34,East,94,0.0,0.0,87,0.00,,,0.00,,2013-04-27 06:02:00,
2013-04-27 02:12:00,43.0,39.0,30.34,East,94,0.0,0.0,87,0.00,,,0.00,,2013-04-27 06:12:00,
2013-04-27 02:22:00,42.0,39.0,30.33,East,96,0.0,0.0,88,0.00,,,0.00,,2013-04-27 06:22:00,
2013-04-27 02:32:00,42.0,38.0,30.33,SSE,160,0.0,1.0,86,0.00,,,0.00,,2013-04-27 06:32:00,
2013-04-27 02:42:00,42.0,38.0,30.33,SSE,160,0.0,1.0,86,0.00,,,0.00,,2013-04-27 06:42:00,
2013-04-27 02:52:00,42.0,38.0,30.33,SSE,157,0.0,1.0,85,0.00,,,0.00,,2013-04-27 06:52:00,
2013-04-27 03:02:00,43.0,38.0,30.32,SE,145,0.0,1.0,83,0.00,,,0.00,,2013-04-27 07:02:00,
2013-04-27 03:11:00,43.0,38.0,30.32,SE,145,0.0,1.0,83,0.00,,,0.00,,2013-04-27 07:11:00,
2013-04-27 03:21:00,43.0,37.0,30.31,SE,146,0.0,0.0,80,0.00,,,0.00,,2013-04-27 07:21:00,
2013-04-27 03:32:00,42.0,38.0,30.31,SE,145,0.0,0.0,87,0.00,,,0.00,,2013-04-27 07:32:00,
2013-04-27 03:42:00,42.0,38.0,30.31,SE,145,0.0,0.0,87,0.00,,,0.00,,2013-04-27 07:42:00,
2013-04-27 03:52:00,42.0,39.0,30.31,SE,146,0.0,0.0,88,0.00,,,0.00,,2013-04-27 07:52:00,
2013-04-27 04:02:00,41.0,38.0,30.31,SE,144,0.0,1.0,90,0.00,,,0.00,,2013-04-27 08:02:00,
2013-04-27 04:12:00,41.0,38.0,30.31,SE,144,0.0,1.0,90,0.00,,,0.00,,2013-04-27 08:12:00,
2013-04-27 04:21:00,41.0,38.0,30.31,SE,143,1.0,1.0,90,0.00,,,0.00,,2013-04-27 08:21:00,
2013-04-27 04:33:00,40.0,37.0,30.30,SE,143,0.0,0.0,90,0.00,,,0.00,,2013-04-27 08:33:00,
2013-04-27 04:42:00,40.0,37.0,30.30,SE,143,0.0,0.0,90,0.00,,,0.00,,2013-04-27 08:42:00,
2013-04-27 04:52:00,40.0,38.0,30.30,SE,144,0.0,1.0,92,0.00,,,0.00,,2013-04-27 08:52:00,
2013-04-27 05:01:00,39.0,37.0,30.30,SE,145,0.0,0.0,91,0.00,,,0.00,,2013-04-27 09:01:00,
2013-04-27 05:11:00,39.0,37.0,30.30,SE,145,0.0,0.0,91,0.00,,,0.00,,2013-04-27 09:11:00,
2013-04-27 05:22:00,39.0,37.0,30.30,SE,145,0.0,0.0,92,0.00,,,0.00,,2013-04-27 09:22:00,
2013-04-27 05:33:00,38.0,36.0,30.30,SE,145,0.0,1.0,92,0.00,,,0.00,,2013-04-27 09:33:00,
2013-04-27 05:42:00,38.0,36.0,30.30,SE,145,0.0,1.0,92,0.00,,,0.00,,2013-04-27 09:42:00,
2013-04-27 05:53:00,38.0,36.0,30.30,SE,146,0.0,0.0,93,0.00,,,0.00,,2013-04-27 09:53:00,
2013-04-27 06:03:00,38.0,36.0,30.30,SE,145,0.0,0.0,93,0.00,,,0.00,,2013-04-27 10:03:00,
2013-04-27 06:12:00,38.0,36.0,30.30,SE,145,0.0,0.0,93,0.00,,,0.00,,2013-04-27 10:12:00,
2013-04-27 06:22:00,38.0,36.0,30.30,SE,144,0.0,1.0,93,0.00,,,0.00,,2013-04-27 10:22:00,
2013-04-27 06:33:00,39.0,37.0,30.30,SE,144,0.0,1.0,94,0.00,,,0.00,,2013-04-27 10:33:00,
2013-04-27 06:42:00,39.0,37.0,30.30,SE,144,0.0,1.0,94,0.00,,,0.00,,2013-04-27 10:42:00,
2013-04-27 06:52:00,39.0,37.0,30.30,SE,143,0.0,0.0,94,0.00,,,0.00,,2013-04-27 10:52:00,
2013-04-27 07:02:00,38.0,36.0,30.30,SE,144,0.0,1.0,94,0.00,,,0.00,,2013-04-27 11:02:00,
2013-04-27 07:12:00,38.0,36.0,30.30,SE,144,0.0,1.0,94,0.00,,,0.00,,2013-04-27 11:12:00,
2013-04-27 07:22:00,38.0,36.0,30.31,SE,144,0.0,0.0,94,0.00,,,0.00,,2013-04-27 11:22:00,
2013-04-27 07:32:00,39.0,37.0,30.31,SE,144,0.0,0.0,94,0.00,,,0.00,,2013-04-27 11:32:00,
2013-04-27 07:42:00,39.0,37.0,30.31,SE,144,0.0,0.0,94,0.00,,,0.00,,2013-04-27 11:42:00,
2013-04-27 07:52:00,40.0,38.0,30.31,SE,143,1.0,1.0,92,0.00,,,0.00,,2013-04-27 11:52:00,
2013-04-27 08:01:00,41.0,39.0,30.31,SE,132,0.0,1.0,91,0.00,,,0.00,,2013-04-27 12:01:00,
2013-04-27 08:11:00,41.0,39.0,30.31,SE,132,0.0,1.0,91,0.00,,,0.00,,2013-04-27 12:11:00,
2013-04-27 08:22:00,43.0,39.0,30.31,SE,144,0.0,1.0,85,0.00,,,0.00,,2013-04-27 12:22:00,
2013-04-27 08:32:00,46.0,41.0,30.30,SE,143,0.0,0.0,84,0.00,,,0.00,,2013-04-27 12:32:00,
2013-04-27 08:42:00,46.0,41.0,30.30,SE,143,0.0,0.0,84,0.00,,,0.00,,2013-04-27 12:42:00,
2013-04-27 08:52:00,47.0,41.0,30.30,East,94,1.0,2.0,79,0.00,,,0.00,,2013-04-27 12:52:00,
2013-04-27 09:02:00,48.0,41.0,30.30,ENE,78,1.0,2.0,77,0.00,,,0.00,,2013-04-27 13:02:00,
2013-04-27 09:12:00,48.0,41.0,30.30,ENE,78,1.0,2.0,77,0.00,,,0.00,,2013-04-27 13:12:00,
2013-04-27 09:22:00,50.0,42.0,30.30,ENE,68,1.0,3.0,73,0.00,,,0.00,,2013-04-27 13:22:00,
2013-04-27 09:32:00,52.0,42.0,30.30,ESE,103,1.0,3.0,68,0.00,,,0.00,,2013-04-27 13:32:00,
2013-04-27 09:42:00,52.0,42.0,30.30,ESE,103,1.0,3.0,68,0.00,,,0.00,,2013-04-27 13:42:00,
2013-04-27 09:52:00,54.0,42.0,30.30,ESE,116,1.0,3.0,64,0.00,,,0.00,,2013-04-27 13:52:00,
2013-04-27 10:02:00,54.0,43.0,30.29,ENE,58,3.0,4.0,65,0.00,,,0.00,,2013-04-27 14:02:00,
2013-04-27 10:11:00,54.0,43.0,30.29,ENE,58,3.0,4.0,65,0.00,,,0.00,,2013-04-27 14:11:00,
2013-04-27 10:22:00,57.0,43.0,30.29,ESE,104,1.0,3.0,60,0.00,,,0.00,,2013-04-27 14:22:00,
2013-04-27 10:32:00,58.0,43.0,30.28,SE,129,2.0,4.0,58,0.00,,,0.00,,2013-04-27 14:32:00,
2013-04-27 10:42:00,58.0,43.0,30.28,SE,129,2.0,4.0,58,0.00,,,0.00,,2013-04-27 14:42:00,
2013-04-27 10:52:00,59.0,40.0,30.28,ESE,114,0.0,5.0,50,0.00,,,0.00,,2013-04-27 14:52:00,
2013-04-27 11:01:00,60.0,40.0,30.27,ESE,105,2.0,7.0,48,0.00,,,0.00,,2013-04-27 15:01:00,
2013-04-27 11:12:00,60.0,40.0,30.27,ESE,105,2.0,7.0,48,0.00,,,0.00,,2013-04-27 15:12:00,
2013-04-27 11:22:00,62.0,40.0,30.27,ENE,64,3.0,6.0,44,0.00,,,0.00,,2013-04-27 15:22:00,
2013-04-27 11:33:00,62.0,41.0,30.26,ESE,117,4.0,7.0,46,0.00,,,0.00,,2013-04-27 15:33:00,
2013-04-27 11:43:00,62.0,41.0,30.26,ESE,117,4.0,7.0,46,0.00,,,0.00,,2013-04-27 15:43:00,
2013-04-27 11:52:00,61.0,40.0,30.25,ESE,103,5.0,9.0,45,0.00,,,0.00,,2013-04-27 15:52:00,
2013-04-27 12:03:00,62.0,39.0,30.25,SE,128,4.0,8.0,42,0.00,,,0.00,,2013-04-27 16:03:00,
2013-04-27 12:13:00,62.0,39.0,30.25,SE,128,4.0,8.0,42,0.00,,,0.00,,2013-04-27 16:13:00,
2013-04-27 12:22:00,63.0,41.0,30.24,ESE,123,5.0,11.0,44,0.00,,,0.00,,2013-04-27 16:22:00,
2013-04-27 12:33:00,63.0,39.0,30.24,South,179,4.0,11.0,41,0.00,,,0.00,,2013-04-27 16:33:00,
2013-04-27 12:42:00,63.0,39.0,30.24,South,179,4.0,11.0,41,0.00,,,0.00,,2013-04-27 16:42:00,
2013-04-27 12:52:00,64.0,39.0,30.24,ESE,110,5.0,12.0,39,0.00,,,0.00,,2013-04-27 16:52:00,
2013-04-27 13:02:00,65.0,41.0,30.23,SE,131,3.0,12.0,41,0.00,,,0.00,,2013-04-27 17:02:00,
2013-04-27 13:12:00,65.0,41.0,30.23,SE,131,3.0,12.0,41,0.00,,,0.00,,2013-04-27 17:12:00,
2013-04-27 13:22:00,66.0,41.0,30.23,SSE,151,6.0,13.0,40,0.00,,,0.00,,2013-04-27 17:22:00,
2013-04-27 13:32:00,66.0,39.0,30.22,South,191,8.0,14.0,37,0.00,,,0.00,,2013-04-27 17:32:00,
2013-04-27 13:42:00,66.0,39.0,30.22,South,191,8.0,14.0,37,0.00,,,0.00,,2013-04-27 17:42:00,
2013-04-27 13:53:00,66.0,39.0,30.22,SSW,193,5.0,15.0,37,0.00,,,0.00,,2013-04-27 17:53:00,
2013-04-27 14:02:00,67.0,39.0,30.21,SSE,160,8.0,14.0,36,0.00,,,0.00,,2013-04-27 18:02:00,
2013-04-27 14:12:00,67.0,39.0,30.21,SSE,160,8.0,14.0,36,0.00,,,0.00,,2013-04-27 18:12:00,
2013-04-27 14:22:00,67.0,38.0,30.21,SSE,157,7.0,12.0,34,0.00,,,0.00,,2013-04-27 18:22:00,
2013-04-27 14:32:00,68.0,41.0,30.21,SSE,158,6.0,14.0,38,0.00,,,0.00,,2013-04-27 18:32:00,
2013-04-27 14:42:00,68.0,41.0,30.21,SSE,158,6.0,14.0,38,0.00,,,0.00,,2013-04-27 18:42:00,
2013-04-27 14:52:00,68.0,39.0,30.20,East,98,7.0,14.0,35,0.00,,,0.00,,2013-04-27 18:52:00,
2013-04-27 15:02:00,68.0,40.0,30.19,SSE,155,6.0,16.0,36,0.00,,,0.00,,2013-04-27 19:02:00,
2013-04-27 15:11:00,68.0,40.0,30.19,SSE,155,6.0,16.0,36,0.00,,,0.00,,2013-04-27 19:11:00,
2013-04-27 15:22:00,69.0,40.0,30.18,SE,137,6.0,13.0,35,0.00,,,0.00,,2013-04-27 19:22:00,
2013-04-27 15:32:00,69.0,39.0,30.18,South,170,4.0,13.0,34,0.00,,,0.00,,2013-04-27 19:32:00,
2013-04-27 15:42:00,69.0,39.0,30.18,South,170,4.0,13.0,34,0.00,,,0.00,,2013-04-27 19:42:00,
2013-04-27 15:52:00,69.0,37.0,30.17,ESE,107,6.0,10.0,31,0.00,,,0.00,,2013-04-27 19:52:00,
2013-04-27 16:02:00,69.0,38.0,30.16,SSE,147,8.0,14.0,32,0.00,,,0.00,,2013-04-27 20:02:00,
2013-04-27 16:11:00,69.0,38.0,30.16,SSE,147,8.0,14.0,32,0.00,,,0.00,,2013-04-27 20:11:00,
2013-04-27 16:22:00,69.0,38.0,30.15,SE,135,9.0,15.0,32,0.00,,,0.00,,2013-04-27 20:22:00,
2013-04-27 16:32:00,69.0,37.0,30.14,East,85,6.0,13.0,31,0.00,,,0.00,,2013-04-27 20:32:00,
2013-04-27 16:42:00,69.0,37.0,30.14,East,85,6.0,13.0,31,0.00,,,0.00,,2013-04-27 20:42:00,
2013-04-27 16:52:00,70.0,41.0,30.14,SSW,194,3.0,12.0,35,0.00,,,0.00,,2013-04-27 20:52:00,
2013-04-27 17:02:00,70.0,39.0,30.13,SE,143,6.0,11.0,32,0.00,,,0.00,,2013-04-27 21:02:00,
2013-04-27 17:12:00,70.0,39.0,30.13,SE,143,6.0,11.0,32,0.00,,,0.00,,2013-04-27 21:12:00,
2013-04-27 17:21:00,69.0,37.0,30.12,SE,124,7.0,12.0,31,0.00,,,0.00,,2013-04-27 21:21:00,
2013-04-27 17:33:00,69.0,37.0,30.11,ESE,113,4.0,9.0,31,0.00,,,0.00,,2013-04-27 21:33:00,
2013-04-27 17:43:00,69.0,37.0,30.11,ESE,113,4.0,9.0,31,0.00,,,0.00,,2013-04-27 21:43:00,
2013-04-27 17:53:00,70.0,36.0,30.11,ESE,108,5.0,11.0,29,0.00,,,0.00,,2013-04-27 21:53:00,
2013-04-27 18:03:00,70.0,35.0,30.11,SE,146,7.0,14.0,28,0.00,,,0.00,,2013-04-27 22:03:00,
2013-04-27 18:13:00,70.0,35.0,30.11,SE,146,7.0,14.0,28,0.00,,,0.00,,2013-04-27 22:13:00,
2013-04-27 18:23:00,70.0,38.0,30.11,ESE,117,6.0,11.0,31,0.00,,,0.00,,2013-04-27 22:23:00,
2013-04-27 18:32:00,70.0,40.0,30.11,South,183,6.0,11.0,34,0.00,,,0.00,,2013-04-27 22:32:00,
2013-04-27 18:42:00,70.0,40.0,30.11,South,183,6.0,11.0,34,0.00,,,0.00,,2013-04-27 22:42:00,
2013-04-27 18:52:00,70.0,40.0,30.10,SE,142,5.0,11.0,33,0.00,,,0.00,,2013-04-27 22:52:00,
2013-04-27 19:02:00,69.0,38.0,30.10,South,169,8.0,16.0,32,0.00,,,0.00,,2013-04-27 23:02:00,
2013-04-27 19:12:00,69.0,38.0,30.10,South,169,8.0,16.0,32,0.00,,,0.00,,2013-04-27 23:12:00,
2013-04-27 19:22:00,69.0,39.0,30.09,South,184,5.0,9.0,34,0.00,,,0.00,,2013-04-27 23:22:00,
2013-04-27 19:32:00,68.0,37.0,30.09,SSE,153,7.0,11.0,32,0.00,,,0.00,,2013-04-27 23:32:00,
2013-04-27 19:42:00,68.0,37.0,30.09,SSE,153,7.0,11.0,32,0.00,,,0.00,,2013-04-27 23:42:00,
2013-04-27 19:52:00,67.0,39.0,30.09,SSE,158,3.0,9.0,36,0.00,,,0.00,,2013-04-27 23:52:00,
2013-04-27 20:01:00,67.0,39.0,30.08,SE,135,2.0,9.0,36,0.00,,,0.00,,2013-04-28 00:01:00,
2013-04-27 20:12:00,67.0,39.0,30.08,SE,135,2.0,9.0,36,0.00,,,0.00,,2013-04-28 00:12:00,
2013-04-27 20:22:00,66.0,38.0,30.08,SE,139,2.0,5.0,36,0.00,,,0.00,,2013-04-28 00:22:00,
2013-04-27 20:32:00,65.0,39.0,30.08,SE,131,1.0,3.0,38,0.00,,,0.00,,2013-04-28 00:32:00,
2013-04-27 20:43:00,65.0,39.0,30.08,SE,131,1.0,3.0,38,0.00,,,0.00,,2013-04-28 00:43:00,
2013-04-27 20:52:00,65.0,39.0,30.07,ESE,110,1.0,3.0,38,0.00,,,0.00,,2013-04-28 00:52:00,
2013-04-27 21:02:00,64.0,39.0,30.07,ESE,110,1.0,2.0,39,0.00,,,0.00,,2013-04-28 01:02:00,
2013-04-27 21:11:00,64.0,39.0,30.07,ESE,110,1.0,2.0,39,0.00,,,0.00,,2013-04-28 01:11:00,
2013-04-27 21:22:00,63.0,39.0,30.06,East,86,1.0,2.0,41,0.00,,,0.00,,2013-04-28 01:22:00,
2013-04-27 21:32:00,63.0,40.0,30.06,ESE,113,1.0,2.0,42,0.00,,,0.00,,2013-04-28 01:32:00,
2013-04-27 21:42:00,63.0,40.0,30.06,ESE,113,1.0,2.0,42,0.00,,,0.00,,2013-04-28 01:42:00,
2013-04-27 21:52:00,63.0,40.0,30.06,East,98,2.0,3.0,43,0.00,,,0.00,,2013-04-28 01:52:00,
2013-04-27 22:02:00,61.0,41.0,30.06,ESE,116,1.0,3.0,47,0.00,,,0.00,,2013-04-28 02:02:00,
2013-04-27 22:12:00,61.0,41.0,30.06,ESE,116,1.0,3.0,47,0.00,,,0.00,,2013-04-28 02:12:00,
2013-04-27 22:22:00,61.0,42.0,30.06,SSE,158,5.0,7.0,49,0.00,,,0.00,,2013-04-28 02:22:00,
2013-04-27 22:32:00,60.0,42.0,30.06,SSE,162,2.0,5.0,52,0.00,,,0.00,,2013-04-28 02:32:00,
2013-04-27 22:42:00,60.0,42.0,30.06,SSE,162,2.0,5.0,52,0.00,,,0.00,,2013-04-28 02:42:00,
2013-04-27 22:52:00,60.0,46.0,30.06,SSE,168,4.0,7.0,60,0.00,,,0.00,,2013-04-28 02:52:00,
2013-04-27 23:01:00,60.0,48.0,30.06,SSE,165,3.0,6.0,64,0.00,,,0.00,,2013-04-28 03:01:00,
2013-04-27 23:11:00,60.0,48.0,30.06,SSE,165,3.0,6.0,64,0.00,,,0.00,,2013-04-28 03:11:00,
2013-04-27 23:21:00,60.0,48.0,30.06,South,184,5.0,9.0,65,0.00,,,0.00,,2013-04-28 03:21:00,
2013-04-27 23:33:00,60.0,48.0,30.05,SSW,197,3.0,6.0,65,0.00,,,0.00,,2013-04-28 03:33:00,
2013-04-27 23:43:00,60.0,48.0,30.05,SSW,197,3.0,6.0,65,0.00,,,0.00,,2013-04-28 03:43:00,
2013-04-27 23:53:00,59.0,48.0,30.04,SSE,158,0.0,2.0,67,0.00,,,0.00,,2013-04-28 03:53:00,